QPF
0.00 0.00 0.00 0.00 0.00 0.00 0.00 0.00 0.00 0.00 0.00 0.00 0.00 0.00 0.00 0.00 0.00 0.00 0.00 0.00 0.00 0.00 0.00 0.00 0.00 0.00 0.00 0.00 0.00 0.00 0.00 0.00 0.00 0.00 0.00 0.00 0.00 0.00 0.00 0.00 0.00 0.00 0.00 0.00 0.00
0.00 0.00 0.00 0.00 0.00 0.00 0.00 0.00 0.00 0.00 0.00 0.00 0.00 0.00 0.00 0.00 0.00 0.00 0.00 0.00 0.00 0.00 0.00 0.00 0.00 0.00 0.00 0.00 0.00 0.00 0.00 0.00 0.00 0.00 0.00 0.00 0.00 0.00 0.00 0.00 0.00 0.00 0.00 0.00 0.00
0.00 0.00 0.00 0.00 0.00 0.00 0.00 0.00 0.00 0.00 0.00 0.00 0.00 0.00 0.00 0.00 0.00 0.00 0.00 0.00 0.00 0.00 0.00 0.00 0.00 0.00 0.00 0.00 0.00 0.00 0.00 0.00 0.00 0.00 0.00 0.00 0.00 0.00 0.00 0.00 0.00 0.00 0.00 0.00 0.00
0.00 0.00 0.00 0.00 0.00 0.00 0.00 0.00 0.00 0.00 0.00 0.00 0.00 0.00 0.00 0.00 0.00 0.00 0.00 0.00 0.00 0.00 0.00 0.00 0.00 0.00 0.00 0.00 0.00 0.00 0.00 0.00 0.00 0.00 0.00 0.00 0.00 0.00 0.00 0.00 0.00 0.00 0.00 0.00 0.00
0.00 0.00 0.00 0.00 0.00 0.00 0.00 0.00 0.00 0.00 0.00 0.00 0.00 0.00 0.00 0.00 0.00 0.00 0.00 0.00 0.00 0.00 0.00 0.00 0.00 0.00 0.00 0.00 0.00 0.00 0.00 0.00 0.00 0.00 0.00 0.00 0.00 0.00 0.00 0.00 0.00 0.00 0.00 0.00 0.00
0.00 0.00 0.00 0.00 0.00 0.00 0.00 0.00 0.00 0.00 0.00 0.00 0.00 0.00 0.00 0.00 0.00 0.00 0.00 0.00 0.00 0.00 0.00 0.00 0.00 0.00 0.00 0.00 0.00 0.00 0.00 0.00 0.00 0.00 0.00 0.00 0.00 0.00 0.00 0.00 0.00 0.00 0.00 0.00 0.00
0.00 0.00 0.00 0.00 0.00 0.00 0.00 0.00 0.00 0.00 0.00 0.00 0.00 0.00 0.00 0.00 0.00 0.00 0.00 0.00 0.00 0.00 0.00 0.00 0.00 0.00 0.00 0.00 0.00 0.00 0.00 0.00 0.00 0.00 0.00 0.00 0.00 0.00 0.00 0.00 0.00 0.00 0.00 0.00 0.00
0.00 0.00 0.00 0.00 0.00 0.00 0.00 0.00 0.00 0.00 0.00 0.00 0.00 0.00 0.00 0.00 0.00 0.00 0.00 0.00 0.00 0.00 0.00 0.00 0.00 0.00 0.00 0.00 0.00 0.00 0.00 0.00 0.00 0.00 0.00 0.00 0.00 0.00 0.00 0.00 0.00 0.00 0.00 0.00 0.00
0.00 0.00 0.00 0.00 0.00 0.00 0.00 0.00 0.00 0.00 0.00 0.00 0.00 0.00 0.00 0.00 0.00 0.00 0.00 0.00 0.00 0.00 0.00 0.00 0.00 0.00 0.00 0.00 0.00 0.00 0.00 0.00 0.00 0.00 0.00 0.00 0.00 0.00 0.00 0.00 0.00 0.00 0.00 0.00 0.00
0.00 0.00 0.00 0.00 0.00 0.00 0.00 0.00 0.00 0.00 0.00 0.00 0.00 0.00 0.00 0.00 0.00 0.00 0.00 0.00 0.00 0.00 0.00 0.00 0.00 0.00 0.00 0.00 0.00 0.00 0.00 0.00 0.00 0.00 0.00 0.00 0.00 0.00 0.00 0.00 0.00 0.00 0.00 0.00 0.00
0.00 0.00 0.00 0.00 0.00 0.00 0.00 0.00 0.00 0.00 0.00 0.00 0.00 0.00 0.00 0.00 0.00 0.00 0.00 0.00 0.00 0.00 0.00 0.00 0.00 0.00 0.00 0.00 0.00 0.00 0.00 0.00 0.00 0.00 0.00 0.00 0.00 0.00 0.00 0.00 0.00 0.00 0.00 0.00 0.00
0.01 0.00 0.00 0.00 0.00 0.00 0.00 0.00 0.00 0.00 0.00 0.00 0.00 0.00 0.00 0.00 0.00 0.00 0.00 0.00 0.00 0.00 0.00 0.00 0.00 0.00 0.00 0.00 0.00 0.00 0.00 0.00 0.00 0.00 0.00 0.00 0.00 0.00 0.00 0.00 0.00 0.00 0.00 0.00 0.00
0.01 0.00 0.00 0.00 0.00 0.00 0.00 0.00 0.00 0.00 0.00 0.00 0.00 0.00 0.00 0.00 0.00 0.00 0.00 0.00 0.00 0.00 0.00 0.00 0.00 0.00 0.00 0.00 0.00 0.00 0.00 0.00 0.00 0.00 0.00 0.00 0.00 0.00 0.00 0.00 0.00 0.00 0.00 0.00 0.00
0.00 0.01 0.01 0.01 0.00 0.00 0.00 0.00 0.00 0.00 0.00 0.00 0.00 0.00 0.00 0.00 0.00 0.00 0.00 0.00 0.00 0.00 0.00 0.00 0.00 0.00 0.00 0.00 0.00 0.00 0.00 0.00 0.00 0.00 0.00 0.00 0.00 0.00 0.00 0.00 0.00 0.00 0.00 0.00 0.00
0.00 0.00 0.01 0.03 0.01 0.00 0.00 0.00 0.00 0.00 0.01 0.00 0.00 0.00 0.00 0.00 0.00 0.00 0.00 0.00 0.00 0.00 0.00 0.00 0.00 0.00 0.00 0.00 0.00 0.00 0.00 0.00 0.00 0.00 0.00 0.00 0.00 0.00 0.00 0.00 0.00 0.00 0.00 0.00 0.00
0.00 0.00 0.00 0.01 0.01 0.00 0.00 0.00 0.00 0.00 0.00 0.00 0.00 0.00 0.00 0.00 0.00 0.00 0.00 0.00 0.00 0.00 0.00 0.00 0.00 0.00 0.00 0.00 0.00 0.00 0.00 0.00 0.00 0.00 0.00 0.00 0.00 0.00 0.00 0.00 0.00 0.00 0.00 0.00 0.00
0.00 0.00 0.00 0.00 0.01 0.00 0.01 0.02 0.03 0.01 0.00 0.00 0.00 0.00 0.00 0.00 0.00 0.00 0.00 0.00 0.00 0.00 0.00 0.00 0.00 0.00 0.00 0.00 0.00 0.00 0.00 0.00 0.00 0.00 0.00 0.00 0.00 0.00 0.00 0.00 0.00 0.00 0.00 0.00 0.00
0.00 0.00 0.00 0.00 0.01 0.03 0.03 0.03 0.01 0.00 0.00 0.00 0.00 0.00 0.00 0.00 0.00 0.00 0.00 0.00 0.00 0.00 0.00 0.00 0.00 0.00 0.00 0.00 0.00 0.00 0.00 0.00 0.00 0.00 0.00 0.00 0.00 0.00 0.00 0.00 0.00 0.00 0.00 0.00 0.00
0.00 0.00 0.00 0.00 0.00 0.04 0.07 0.04 0.00 0.00 0.00 0.00 0.00 0.00 0.00 0.00 0.00 0.00 0.00 0.00 0.00 0.00 0.00 0.00 0.00 0.00 0.00 0.00 0.00 0.00 0.00 0.00 0.00 0.00 0.00 0.00 0.00 0.00 0.00 0.00 0.00 0.00 0.00 0.00 0.00
0.00 0.00 0.00 0.00 0.00 0.01 0.04 0.02 0.00 0.00 0.00 0.00 0.00 0.00 0.00 0.00 0.00 0.00 0.00 0.00 0.00 0.00 0.00 0.00 0.00 0.00 0.00 0.00 0.00 0.00 0.00 0.00 0.00 0.00 0.00 0.00 0.00 0.00 0.00 0.00 0.00 0.00 0.00 0.00 0.00
0.00 0.00 0.00 0.00 0.00 0.01 0.01 0.00 0.00 0.00 0.00 0.00 0.00 0.00 0.00 0.00 0.00 0.00 0.00 0.00 0.00 0.00 0.00 0.00 0.00 0.00 0.00 0.00 0.00 0.00 0.00 0.00 0.00 0.00 0.00 0.00 0.00 0.00 0.00 0.00 0.00 0.00 0.00 0.00 0.00
0.01 0.00 0.00 0.02 0.00 0.00 0.00 0.00 0.00 0.00 0.00 0.00 0.01 0.00 0.00 0.00 0.00 0.00 0.00 0.00 0.00 0.00 0.00 0.00 0.00 0.00 0.00 0.00 0.00 0.00 0.00 0.00 0.00 0.00 0.00 0.00 0.00 0.00 0.00 0.00 0.00 0.00 0.00 0.00 0.00
0.00 0.00 0.00 0.04 0.00 0.00 0.00 0.00 0.00 0.00 0.00 0.02 0.00 0.00 0.00 0.01 0.03 0.00 0.00 0.00 0.00 0.00 0.00 0.00 0.00 0.00 0.00 0.00 0.00 0.00 0.00 0.00 0.00 0.00 0.00 0.00 0.00 0.00 0.00 0.00 0.00 0.00 0.00 0.00 0.00
0.00 0.00 0.00 0.00 0.00 0.00 0.00 0.00 0.00 0.00 0.00 0.00 0.00 0.01 0.00 0.00 0.01 0.00 0.00 0.00 0.00 0.00 0.00 0.00 0.00 0.00 0.00 0.00 0.00 0.00 0.00 0.00 0.00 0.00 0.00 0.00 0.00 0.00 0.00 0.00 0.00 0.00 0.00 0.00 0.00
0.00 0.00 0.00 0.00 0.00 0.00 0.00 0.00 0.00 0.00 0.00 0.00 0.00 0.00 0.00 0.01 0.01 0.00 0.00 0.00 0.00 0.00 0.00 0.01 0.00 0.00 0.00 0.00 0.00 0.00 0.00 0.00 0.00 0.00 0.00 0.00 0.00 0.00 0.00 0.00 0.00 0.00 0.00 0.00 0.00
0.00 0.00 0.00 0.00 0.00 0.00 0.00 0.00 0.00 0.00 0.00 0.00 0.00 0.00 0.02 0.03 0.01 0.01 0.01 0.01 0.01 0.00 0.01 0.01 0.01 0.00 0.00 0.00 0.00 0.00 0.00 0.00 0.00 0.00 0.00 0.00 0.00 0.00 0.00 0.00 0.00 0.00 0.00 0.00 0.00
0.00 0.00 0.00 0.00 0.00 0.00 0.00 0.00 0.00 0.00 0.00 0.00 0.00 0.00 0.01 0.00 0.01 0.02 0.01 0.00 0.00 0.00 0.00 0.00 0.00 0.00 0.00 0.00 0.00 0.00 0.00 0.00 0.00 0.00 0.00 0.00 0.00 0.00 0.00 0.00 0.00 0.00 0.00 0.00 0.00
MSLP
1018.61 1018.67 1018.73 1018.70 1018.42 1018.27 1018.15 1018.21 1018.25 1017.90 1017.71 1017.54 1017.07 1016.74 1016.61 1016.32 1016.05 1016.16 1016.17 1016.02 1015.76 1015.33 1015.73 1015.45 1015.33 1015.89 1016.09 1017.26 1017.84 1018.39 1019.64 1020.21 1019.80 1019.94 1018.95 1019.11 1019.29 1019.42 1019.57 1019.92 1020.26 1020.27 1020.38 1020.58 1020.80
1018.73 1018.64 1018.61 1018.57 1018.50 1018.30 1018.27 1018.17 1017.94 1017.63 1017.60 1017.39 1016.91 1016.67 1016.51 1016.08 1015.87 1015.99 1015.85 1015.72 1015.59 1015.39 1015.59 1015.42 1015.69 1015.87 1016.89 1017.61 1018.16 1018.56 1019.70 1019.34 1018.86 1018.83 1018.61 1018.82 1019.01 1019.25 1019.70 1019.90 1020.11 1020.18 1020.36 1020.73 1021.08
1018.78 1018.83 1018.84 1018.85 1018.81 1018.70 1018.40 1018.08 1017.68 1017.64 1017.25 1017.06 1016.97 1016.61 1016.31 1016.10 1016.11 1015.79 1015.65 1015.55 1015.51 1015.37 1015.57 1015.40 1015.61 1016.03 1017.08 1017.62 1018.22 1018.66 1018.86 1018.68 1018.44 1018.42 1018.42 1018.65 1018.93 1019.03 1019.32 1019.78 1019.24 1019.42 1019.93 1020.70 1021.05
1018.62 1018.70 1018.75 1018.77 1018.68 1018.57 1018.42 1018.13 1017.84 1017.53 1017.30 1017.16 1016.88 1016.43 1016.04 1016.11 1016.23 1015.64 1015.64 1015.41 1015.52 1015.50 1015.46 1015.44 1015.82 1016.54 1017.37 1017.86 1018.08 1018.50 1018.48 1018.38 1018.24 1018.27 1018.47 1018.58 1018.67 1018.88 1019.10 1018.39 1018.49 1018.84 1019.34 1020.26 1020.78
1018.50 1018.52 1018.59 1018.61 1018.44 1018.32 1018.23 1018.14 1017.97 1017.75 1017.48 1017.35 1016.86 1016.33 1016.06 1016.07 1015.94 1015.69 1015.60 1015.34 1015.55 1015.45 1015.52 1015.48 1016.07 1016.66 1017.53 1017.92 1018.15 1018.35 1018.36 1018.29 1018.25 1018.24 1018.32 1018.46 1018.62 1018.69 1018.58 1018.24 1018.66 1018.99 1019.46 1019.84 1020.24
1018.49 1018.46 1018.47 1018.60 1018.56 1018.33 1018.17 1018.09 1018.07 1017.96 1017.76 1017.46 1016.98 1016.45 1016.20 1016.25 1015.81 1015.62 1015.50 1015.58 1015.63 1015.56 1015.69 1015.61 1016.11 1016.52 1017.70 1018.24 1018.35 1018.48 1018.49 1018.43 1018.36 1018.34 1018.34 1018.47 1018.60 1018.68 1017.96 1018.16 1018.74 1019.14 1019.33 1019.70 1019.98
1018.39 1018.45 1018.50 1018.49 1018.46 1018.36 1018.24 1018.09 1017.93 1017.79 1017.72 1017.47 1017.14 1016.79 1016.47 1016.07 1015.66 1015.53 1015.50 1015.74 1015.83 1015.67 1015.79 1015.98 1016.11 1016.63 1017.76 1018.49 1018.69 1018.79 1018.93 1018.67 1018.52 1018.54 1018.52 1018.57 1018.80 1018.14 1017.98 1018.29 1018.68 1019.02 1019.28 1019.60 1019.71
1018.36 1018.44 1018.44 1018.44 1018.39 1018.26 1018.06 1017.91 1017.69 1017.55 1017.42 1017.21 1017.15 1017.00 1016.33 1015.71 1015.69 1015.50 1015.54 1015.90 1016.03 1015.77 1015.81 1016.25 1016.21 1017.11 1018.18 1018.89 1019.35 1019.59 1019.60 1019.51 1018.85 1018.82 1018.81 1019.05 1018.71 1017.74 1018.08 1018.55 1018.54 1018.77 1019.10 1019.26 1019.24
1018.18 1018.35 1018.47 1018.51 1018.43 1018.30 1018.04 1017.72 1017.59 1017.44 1017.15 1017.02 1017.23 1017.31 1016.28 1015.60 1015.90 1015.91 1015.75 1015.97 1016.15 1016.24 1016.35 1016.41 1016.93 1018.66 1019.08 1019.80 1020.53 1020.70 1020.31 1020.19 1019.40 1019.13 1019.24 1019.38 1018.93 1017.96 1018.19 1018.62 1018.66 1018.68 1018.63 1018.82 1018.79
1017.85 1018.19 1018.37 1018.49 1018.49 1018.30 1018.14 1017.74 1017.38 1017.42 1017.23 1017.16 1017.41 1017.59 1016.37 1015.87 1015.82 1015.97 1015.95 1016.03 1016.37 1016.66 1016.92 1017.37 1018.52 1019.69 1020.29 1020.49 1020.83 1020.67 1020.76 1020.53 1020.16 1019.64 1019.70 1019.77 1018.98 1018.56 1018.20 1018.49 1018.37 1018.13 1018.08 1018.10 1017.97
1017.23 1017.87 1018.40 1018.10 1018.27 1018.27 1018.12 1017.88 1018.09 1018.01 1017.57 1016.96 1017.14 1017.07 1016.55 1016.51 1016.19 1016.05 1016.05 1016.15 1016.62 1017.41 1018.09 1018.86 1019.48 1020.06 1019.69 1020.24 1020.34 1020.44 1020.63 1020.59 1020.11 1019.75 1019.98 1019.55 1018.99 1018.30 1017.96 1017.99 1017.52 1017.24 1017.03 1016.72 1016.59
1017.47 1017.64 1018.04 1017.90 1018.17 1018.16 1018.30 1018.19 1018.11 1018.41 1017.89 1016.95 1017.00 1016.89 1016.59 1016.51 1016.60 1016.32 1016.04 1016.47 1017.14 1018.21 1018.86 1019.67 1019.74 1019.21 1019.76 1020.22 1020.48 1020.68 1020.91 1020.86 1020.19 1020.03 1020.35 1019.61 1019.03 1017.82 1017.53 1016.59 1015.62 1015.43 1015.40 1015.20 1015.16
1017.52 1017.54 1017.50 1017.82 1018.11 1018.31 1018.55 1018.31 1018.05 1017.93 1018.13 1016.96 1016.67 1016.45 1016.14 1016.38 1016.33 1016.25 1016.41 1016.59 1017.38 1018.53 1019.11 1019.38 1019.13 1019.23 1019.75 1020.41 1020.80 1020.96 1021.06 1020.87 1020.87 1020.46 1020.48 1020.26 1019.15 1017.54 1015.86 1015.25 1014.70 1014.27 1013.68 1013.91 1013.67
1018.05 1017.52 1017.49 1017.64 1018.71 1018.16 1018.27 1017.70 1017.94 1017.39 1018.09 1016.96 1016.46 1015.47 1015.61 1015.68 1016.19 1015.80 1016.09 1016.64 1017.51 1017.88 1019.05 1019.26 1018.81 1019.20 1019.80 1020.16 1020.38 1020.77 1020.25 1020.55 1021.09 1021.60 1021.47 1020.77 1019.32 1017.32 1015.68 1014.44 1014.08 1013.04 1012.83 1012.42 1012.52
1018.24 1017.98 1017.82 1017.80 1017.93 1018.07 1018.35 1017.84 1017.85 1017.87 1018.16 1016.37 1015.95 1015.58 1015.75 1016.02 1016.00 1016.37 1016.41 1016.26 1017.18 1017.73 1018.45 1017.83 1018.39 1018.87 1019.19 1019.06 1019.66 1020.06 1020.29 1020.96 1021.42 1021.97 1022.13 1021.19 1020.51 1015.85 1015.23 1014.27 1013.34 1011.91 1011.46 1011.46 1011.79
1018.37 1018.14 1018.04 1018.04 1018.09 1017.97 1017.92 1018.22 1018.50 1019.11 1017.72 1016.01 1015.56 1015.68 1016.45 1016.42 1016.54 1016.69 1016.57 1016.59 1017.07 1017.74 1018.01 1017.94 1017.85 1018.01 1017.90 1018.64 1019.01 1019.99 1020.63 1021.56 1022.36 1022.75 1022.38 1020.15 1020.02 1013.50 1014.58 1013.01 1012.15 1011.13 1010.66 1010.62 1011.57
1018.49 1018.39 1018.34 1018.23 1018.04 1017.95 1017.99 1018.81 1019.08 1017.92 1016.40 1015.90 1015.92 1015.96 1016.20 1016.79 1017.10 1017.09 1017.21 1017.18 1017.23 1018.00 1017.80 1018.11 1017.79 1017.59 1017.61 1018.62 1019.42 1019.58 1020.60 1022.04 1023.00 1023.24 1021.33 1019.92 1019.53 1012.87 1013.11 1011.99 1011.47 1011.04 1010.02 1010.57 1011.30
1018.57 1018.53 1018.47 1018.29 1018.09 1017.97 1018.31 1019.00 1018.53 1016.91 1016.57 1015.96 1016.02 1016.30 1016.44 1016.87 1017.09 1017.39 1017.60 1017.76 1017.27 1017.25 1017.61 1017.81 1017.66 1017.11 1016.77 1016.74 1017.73 1019.12 1019.22 1020.23 1021.28 1022.45 1021.53 1020.49 1017.77 1013.05 1011.66 1011.18 1011.01 1010.57 1010.55 1011.06 1011.60
1018.52 1018.69 1018.61 1018.08 1018.11 1018.38 1018.52 1018.06 1016.96 1016.59 1016.02 1016.14 1016.25 1016.61 1016.62 1016.82 1017.17 1017.51 1017.64 1017.40 1016.68 1016.64 1016.79 1017.04 1016.92 1016.42 1016.37 1016.32 1016.59 1018.49 1018.79 1018.25 1019.96 1022.06 1021.79 1018.47 1015.17 1012.33 1011.19 1010.75 1010.58 1010.15 1010.42 1011.11 1011.42
1018.83 1018.83 1018.45 1017.62 1018.05 1018.51 1018.54 1017.45 1016.53 1015.84 1015.87 1016.10 1016.04 1016.11 1016.40 1016.87 1017.37 1017.33 1017.27 1016.00 1015.93 1015.60 1015.54 1016.08 1016.69 1016.54 1016.69 1016.67 1016.79 1016.75 1017.37 1018.73 1019.79 1021.02 1020.67 1017.13 1015.14 1012.25 1011.05 1010.33 1009.71 1010.07 1010.04 1010.38 1010.83
1018.85 1018.68 1017.70 1017.60 1018.06 1018.85 1018.14 1017.03 1016.18 1015.84 1016.15 1015.81 1015.68 1016.06 1016.06 1016.61 1016.89 1017.18 1016.33 1015.54 1015.21 1015.16 1015.19 1015.71 1016.42 1017.09 1017.08 1016.76 1016.59 1017.36 1017.26 1018.05 1018.57 1019.06 1018.61 1017.13 1012.71 1010.33 1009.82 1009.60 1009.69 1009.58 1009.81 1010.02 1010.42
1018.74 1018.81 1017.73 1017.53 1018.48 1018.09 1017.49 1016.51 1016.09 1016.13 1015.93 1015.96 1015.99 1015.58 1015.57 1016.07 1016.51 1016.64 1015.88 1014.46 1014.04 1014.72 1015.25 1015.15 1015.81 1016.44 1016.29 1016.21 1016.32 1016.35 1015.95 1016.31 1017.29 1018.09 1017.92 1016.46 1010.52 1009.27 1009.29 1009.32 1009.36 1009.59 1009.80 1010.15 1010.42
1018.80 1018.47 1017.85 1017.89 1017.90 1017.51 1016.91 1016.29 1016.39 1016.05 1015.90 1015.90 1015.66 1015.29 1015.17 1015.48 1015.93 1015.59 1015.05 1014.52 1014.15 1014.24 1014.41 1014.74 1015.29 1016.34 1016.33 1016.62 1016.53 1016.44 1015.99 1015.67 1016.09 1016.30 1015.46 1014.54 1009.59 1008.94 1008.93 1009.19 1009.17 1009.60 1009.90 1010.18 1010.57
1018.68 1018.99 1018.74 1018.32 1017.56 1017.31 1017.39 1016.95 1016.81 1016.14 1016.09 1016.07 1015.63 1015.67 1015.81 1015.48 1015.16 1015.33 1015.19 1014.68 1014.02 1013.81 1013.55 1013.88 1014.41 1014.97 1014.51 1014.43 1014.70 1015.57 1014.94 1014.90 1015.06 1015.28 1012.23 1012.44 1008.26 1008.82 1009.06 1009.00 1009.15 1009.18 1009.46 1009.73 1010.19
1018.06 1018.08 1017.81 1018.25 1017.66 1017.63 1017.62 1017.21 1016.61 1016.53 1016.11 1016.06 1015.72 1015.60 1015.56 1015.77 1015.53 1015.08 1015.35 1015.29 1014.88 1013.99 1013.83 1013.68 1014.19 1014.65 1013.50 1013.85 1014.06 1014.36 1013.90 1013.85 1013.97 1012.31 1012.54 1009.01 1009.98 1005.42 1008.50 1008.83 1008.92 1008.67 1008.88 1009.19 1009.35
1017.26 1017.55 1017.83 1017.77 1017.25 1017.65 1017.88 1016.46 1016.81 1016.87 1016.74 1016.09 1015.75 1015.75 1015.83 1015.63 1015.26 1014.55 1014.71 1014.54 1014.22 1014.29 1013.59 1013.44 1013.51 1013.93 1013.36 1013.02 1013.01 1013.39 1013.46 1013.17 1012.23 1011.20 1011.24 1009.30 1008.89 1005.83 1007.16 1007.50 1008.05 1008.32 1008.05 1008.17 1008.59
1016.65 1017.15 1017.22 1017.00 1017.36 1017.47 1016.49 1015.99 1016.10 1017.20 1016.42 1016.36 1016.34 1016.36 1016.42 1016.08 1015.51 1015.21 1015.41 1015.08 1015.17 1015.05 1014.98 1014.44 1013.61 1013.18 1012.23 1011.69 1012.60 1012.33 1011.05 1010.08 1010.91 1010.12 1009.10 1008.77 1005.33 1006.29 1006.51 1006.85 1007.30 1007.42 1007.47 1007.64 1007.76
Thickness
5626 5631 5637 5641 5647 5652 5657 5660 5663 5670 5675 5679 5686 5692 5696 5701 5704 5707 5705 5711 5715 5722 5721 5725 5728 5723 5724 5714 5712 5707 5682 5675 5688 5682 5703 5699 5704 5703 5705 5700 5699 5701 5702 5702 5701
5616 5624 5629 5636 5642 5647 5650 5655 5661 5668 5671 5677 5684 5689 5692 5700 5704 5702 5708 5711 5714 5718 5717 5719 5716 5719 5705 5706 5702 5696 5679 5687 5697 5697 5705 5703 5707 5702 5701 5699 5699 5701 5701 5699 5698
5609 5614 5620 5625 5631 5638 5644 5651 5658 5663 5670 5676 5679 5685 5691 5696 5696 5698 5705 5708 5711 5715 5714 5718 5717 5714 5702 5702 5697 5689 5687 5695 5702 5704 5707 5705 5705 5703 5700 5696 5706 5708 5705 5698 5696
5606 5610 5614 5619 5625 5631 5638 5645 5652 5658 5664 5669 5675 5682 5688 5691 5673 5697 5701 5705 5707 5710 5712 5712 5709 5700 5690 5692 5695 5693 5694 5696 5704 5706 5703 5700 5702 5703 5699 5713 5714 5711 5709 5700 5698
5600 5605 5610 5614 5621 5626 5632 5638 5645 5650 5656 5660 5668 5677 5683 5681 5683 5693 5697 5702 5702 5706 5705 5706 5701 5696 5686 5688 5691 5690 5692 5698 5700 5702 5703 5702 5702 5702 5701 5710 5709 5707 5704 5703 5702
5592 5597 5603 5607 5612 5619 5625 5631 5635 5641 5647 5653 5660 5668 5674 5666 5684 5690 5694 5695 5697 5699 5699 5704 5698 5699 5685 5684 5685 5688 5690 5692 5695 5698 5700 5700 5701 5702 5710 5707 5706 5704 5704 5702 5701
5585 5589 5594 5599 5604 5610 5617 5623 5629 5635 5640 5646 5653 5659 5663 5666 5680 5686 5689 5689 5691 5695 5694 5698 5699 5697 5686 5679 5683 5682 5683 5685 5689 5691 5695 5697 5693 5695 5707 5705 5704 5703 5701 5699 5700
5579 5583 5587 5592 5596 5602 5609 5616 5623 5629 5635 5641 5646 5651 5652 5669 5674 5679 5682 5683 5685 5690 5693 5692 5696 5685 5679 5675 5669 5668 5665 5668 5682 5683 5689 5690 5679 5701 5699 5698 5703 5702 5699 5697 5699
5573 5577 5580 5583 5588 5593 5599 5607 5613 5620 5628 5634 5638 5640 5647 5663 5663 5669 5675 5674 5678 5680 5683 5687 5683 5665 5667 5656 5650 5647 5654 5655 5667 5674 5679 5678 5681 5695 5693 5691 5696 5697 5698 5697 5697
5566 5569 5572 5576 5580 5586 5592 5598 5605 5610 5617 5623 5626 5628 5644 5649 5656 5660 5666 5669 5667 5669 5670 5668 5654 5646 5641 5646 5638 5644 5647 5649 5656 5671 5667 5668 5675 5684 5689 5690 5695 5697 5696 5697 5698
5564 5564 5563 5570 5574 5578 5584 5589 5593 5597 5605 5616 5620 5624 5633 5639 5647 5650 5655 5657 5658 5651 5645 5645 5640 5637 5650 5644 5648 5643 5649 5652 5655 5662 5662 5662 5668 5683 5685 5687 5691 5696 5700 5703 5703
5555 5558 5559 5564 5566 5569 5574 5580 5585 5586 5590 5605 5608 5616 5623 5631 5632 5640 5649 5644 5643 5632 5633 5629 5627 5646 5643 5637 5642 5640 5640 5641 5648 5652 5649 5657 5664 5685 5684 5697 5707 5711 5711 5710 5711
5545 5551 5554 5557 5557 5561 5563 5571 5576 5582 5579 5596 5603 5608 5616 5621 5625 5629 5636 5635 5629 5619 5621 5621 5637 5635 5637 5628 5629 5629 5629 5633 5639 5644 5641 5641 5647 5669 5693 5699 5706 5708 5716 5713 5717
5530 5541 5543 5548 5547 5553 5557 5565 5568 5577 5560 5584 5594 5605 5611 5615 5617 5628 5628 5627 5620 5621 5610 5617 5629 5629 5627 5628 5628 5623 5630 5631 5631 5628 5623 5637 5622 5664 5687 5702 5701 5711 5712 5718 5719
5517 5525 5530 5535 5540 5545 5547 5555 5559 5560 5543 5577 5590 5600 5602 5605 5612 5613 5617 5622 5610 5613 5614 5627 5618 5620 5622 5630 5623 5624 5620 5619 5620 5613 5611 5620 5617 5660 5681 5690 5703 5720 5720 5719 5715
5502 5510 5517 5521 5527 5534 5539 5541 5543 5531 5536 5569 5581 5584 5584 5592 5593 5598 5604 5609 5608 5605 5609 5615 5618 5620 5627 5623 5623 5612 5610 5601 5587 5593 5596 5622 5624 5688 5669 5691 5706 5715 5720 5719 5710
5488 5495 5501 5508 5517 5521 5527 5523 5522 5529 5561 5567 5565 5570 5574 5574 5579 5583 5585 5588 5591 5585 5593 5601 5607 5615 5620 5609 5607 5612 5604 5586 5580 5565 5605 5602 5611 5689 5680 5685 5699 5710 5722 5713 5704
5473 5480 5487 5493 5500 5506 5510 5510 5508 5536 5541 5557 5557 5557 5563 5561 5567 5568 5568 5573 5584 5588 5580 5586 5590 5602 5615 5621 5608 5594 5604 5586 5570 5568 5596 5587 5604 5657 5679 5689 5687 5694 5694 5693 5694
5461 5466 5474 5481 5486 5489 5495 5502 5513 5526 5542 5544 5548 5547 5550 5556 5555 5558 5552 5561 5580 5581 5584 5572 5579 5598 5603 5612 5615 5591 5589 5614 5591 5494 5549 5605 5633 5661 5667 5676 5682 5687 5684 5675 5678
5448 5451 5460 5468 5472 5473 5479 5495 5516 5528 5531 5533 5539 5543 5539 5539 5544 5544 5543 5570 5574 5580 5586 5581 5572 5581 5587 5594 5594 5597 5596 5576 5557 5558 5537 5603 5614 5649 5670 5675 5682 5679 5682 5678 5671
5438 5442 5454 5456 5456 5452 5462 5489 5509 5517 5516 5521 5528 5531 5537 5532 5535 5527 5552 5567 5565 5570 5575 5571 5564 5563 5570 5572 5579 5576 5578 5575 5572 5561 5558 5556 5627 5650 5663 5668 5666 5669 5671 5671 5666
5428 5426 5444 5447 5439 5451 5463 5486 5499 5500 5504 5507 5509 5522 5531 5528 5528 5528 5540 5568 5566 5561 5557 5562 5552 5549 5557 5566 5564 5570 5582 5576 5563 5549 5534 5551 5635 5653 5657 5655 5654 5653 5658 5658 5656
5412 5424 5430 5432 5430 5445 5461 5471 5474 5482 5491 5495 5502 5511 5522 5523 5518 5524 5537 5551 5553 5554 5551 5553 5537 5500 5538 5548 5546 5546 5559 5573 5560 5548 5558 5567 5633 5637 5641 5643 5646 5643 5639 5633 5635
5400 5393 5402 5417 5432 5442 5441 5450 5452 5469 5470 5477 5490 5493 5497 5498 5517 5513 5519 5534 5538 5548 5553 5551 5533 5535 5554 5560 5549 5540 5546 5555 5563 5534 5589 5566 5634 5638 5633 5635 5632 5630 5629 5625 5622
5387 5393 5402 5396 5418 5422 5428 5438 5449 5450 5462 5467 5468 5478 5489 5483 5498 5506 5507 5511 5516 5531 5534 5537 5525 5521 5552 5548 5544 5543 5548 5550 5550 5575 5554 5609 5588 5650 5624 5619 5619 5624 5621 5621 5620
5381 5388 5388 5391 5407 5406 5404 5434 5429 5435 5438 5451 5455 5470 5465 5469 5486 5503 5506 5510 5516 5509 5523 5525 5521 5518 5529 5541 5541 5534 5533 5531 5550 5565 5557 5582 5579 5644 5627 5615 5608 5609 5620 5621 5615
5369 5371 5377 5389 5384 5386 5409 5422 5424 5413 5428 5437 5436 5432 5432 5451 5457 5464 5469 5478 5478 5483 5480 5495 5512 5511 5527 5544 5524 5510 5544 5557 5550 5557 5569 5558 5612 5615 5606 5604 5602 5600 5602 5605 5606